| time (UTC) | temp F | wind direction | speed MPH | gust MPH | rain 1hr in | rain 24hr in | rain mn in | humidity % | barometer mb |
| 20260507221542 | 60 | 121 | 1.0 | 4.0 | 0.00 | 0.11 | 0.11 | 71 | 938.9 |
| 20260507220529 | 60 | 74 | 3.0 | 8.0 | 0.00 | 0.11 | 0.11 | 71 | 939.1 |
| 20260507215516 | 60 | 72 | 2.0 | 7.0 | 0.00 | 0.11 | 0.11 | 74 | 939.4 |
| 20260507214604 | 60 | 121 | 2.0 | 5.0 | 0.00 | 0.11 | 0.11 | 75 | 939.4 |
| 20260507213546 | 60 | 53 | 3.0 | 5.0 | 0.00 | 0.11 | 0.11 | 74 | 939.9 |
| 20260507212524 | 60 | 82 | 2.0 | 6.0 | 0.00 | 0.11 | 0.11 | 75 | 940.2 |
| 20260507211604 | 60 | 47 | 2.0 | 4.0 | 0.00 | 0.11 | 0.11 | 77 | 940.2 |
| 20260507210547 | 59 | 62 | 3.0 | 9.0 | 0.00 | 0.11 | 0.11 | 77 | 940.1 |
| 20260507205534 | 59 | 60 | 5.0 | 8.0 | 0.00 | 0.11 | 0.11 | 76 | 939.9 |
| 20260507204522 | 59 | 49 | 3.0 | 11.0 | 0.00 | 0.11 | 0.11 | 77 | 940.2 |
| 20260507203609 | 59 | 39 | 3.0 | 11.0 | 0.00 | 0.11 | 0.11 | 80 | 940.5 |
| 20260507202556 | 58 | 42 | 4.0 | 9.0 | 0.00 | 0.11 | 0.11 | 81 | 940.4 |
| 20260507201543 | 58 | 56 | 3.0 | 6.0 | 0.00 | 0.11 | 0.11 | 82 | 940.9 |
| 20260507200530 | 58 | 66 | 3.0 | 8.0 | 0.00 | 0.11 | 0.11 | 83 | 940.9 |
| 20260507195631 | 57 | 70 | 2.0 | 5.0 | 0.00 | 0.11 | 0.11 | 86 | 940.6 |
| 20260507194554 | 57 | 52 | 2.0 | 5.0 | 0.00 | 0.11 | 0.11 | 87 | 940.7 |
| 20260507193538 | 57 | 59 | 3.0 | 7.0 | 0.00 | 0.11 | 0.11 | 89 | 940.7 |
| 20260507192524 | 57 | 99 | 2.0 | 6.0 | 0.00 | 0.11 | 0.11 | 90 | 940.6 |
| 20260507191612 | 56 | 88 | 3.0 | 9.0 | 0.01 | 0.11 | 0.11 | 92 | 940.8 |
| 20260507190559 | 55 | 93 | 2.0 | 7.0 | 0.03 | 0.12 | 0.11 | 94 | 940.5 |
| 20260507185537 | 55 | 75 | 1.0 | 4.0 | 0.04 | 0.12 | 0.11 | 95 | 940.7 |
| 20260507184523 | 55 | 56 | 2.0 | 6.0 | 0.05 | 0.12 | 0.11 | 96 | 940.5 |
| 20260507183604 | 54 | 44 | 4.0 | 9.0 | 0.05 | 0.12 | 0.11 | 96 | 941.1 |
| 20260507182551 | 55 | 10 | 3.0 | 9.0 | 0.05 | 0.12 | 0.11 | 96 | 941.6 |
| 20260507181536 | 54 | 38 | 4.0 | 7.0 | 0.04 | 0.11 | 0.10 | 95 | 941.2 |
| 20260507180521 | 54 | 321 | 3.0 | 9.0 | 0.02 | 0.09 | 0.07 | 95 | 941.8 |
| 20260507175608 | 54 | 329 | 3.0 | 8.0 | 0.01 | 0.08 | 0.06 | 94 | 941.9 |
| 20260507174546 | 54 | 24 | 3.0 | 6.0 | 0.00 | 0.08 | 0.06 | 95 | 941.3 |
| 20260507173532 | 54 | 45 | 4.0 | 11.0 | 0.00 | 0.08 | 0.06 | 95 | 940.3 |
| 20260507172517 | 54 | 16 | 4.0 | 10.0 | 0.00 | 0.10 | 0.06 | 95 | 940.7 |
| 20260507171600 | 54 | 1 | 4.0 | 7.0 | 0.00 | 0.12 | 0.05 | 96 | 940.8 |
| 20260507170547 | 54 | 57 | 3.0 | 7.0 | 0.00 | 0.12 | 0.05 | 97 | 940.1 |
| 20260507165525 | 53 | 54 | 4.0 | 9.0 | 0.01 | 0.12 | 0.05 | 98 | 939.8 |
| 20260507164607 | 53 | 57 | 4.0 | 10.0 | 0.02 | 0.12 | 0.05 | 97 | 940.7 |
| 20260507163609 | 53 | 360 | 2.0 | 5.0 | 0.02 | 0.12 | 0.05 | 97 | 941.6 |
| 20260507162530 | 53 | 3 | 3.0 | 5.0 | 0.02 | 0.12 | 0.05 | 98 | 941.9 |
| 20260507161613 | 53 | 52 | 3.0 | 5.0 | 0.03 | 0.12 | 0.05 | 97 | 940.9 |
| 20260507160559 | 52 | 360 | 7.0 | 14.0 | 0.04 | 0.12 | 0.05 | 97 | 940.8 |
| 20260507155546 | 52 | 48 | 5.0 | 13.0 | 0.03 | 0.11 | 0.04 | 97 | 940.1 |
| 20260507154551 | 52 | 4 | 5.0 | 11.0 | 0.02 | 0.11 | 0.04 | 97 | 941.8 |
| 20260507153518 | 52 | 80 | 1.0 | 6.0 | 0.02 | 0.10 | 0.04 | 97 | 942.5 |
| 20260507152606 | 52 | 68 | 2.0 | 6.0 | 0.02 | 0.10 | 0.04 | 97 | 941.2 |
| 20260507151552 | 52 | 285 | 7.0 | 17.0 | 0.01 | 0.10 | 0.03 | 97 | 942.2 |
| 20260507150539 | 52 | 38 | 2.0 | 5.0 | 0.00 | 0.09 | 0.02 | 97 | 941.4 |
| 20260507145527 | 52 | 14 | 2.0 | 6.0 | 0.00 | 0.10 | 0.02 | 97 | 941.3 |
| 20260507144610 | 52 | 10 | 4.0 | 8.0 | 0.00 | 0.19 | 0.02 | 98 | 941.6 |
| 20260507143612 | 52 | 349 | 3.0 | 9.0 | 0.00 | 0.60 | 0.02 | 98 | 941.3 |
| 20260507142530 | 52 | 9 | 4.0 | 10.0 | 0.00 | 0.62 | 0.02 | 98 | 940.6 |
| 20260507141517 | 52 | 36 | 7.0 | 15.0 | 0.00 | 0.62 | 0.02 | 98 | 940.6 |
| 20260507140625 | 52 | 13 | 5.0 | 11.0 | 0.00 | 0.62 | 0.01 | 98 | 941.4 |
| 20260507135551 | 52 | 21 | 5.0 | 9.0 | 0.00 | 0.62 | 0.01 | 98 | 941.7 |
| 20260507134539 | 52 | 19 | 3.0 | 8.0 | 0.00 | 0.62 | 0.01 | 98 | 941.5 |
| 20260507133519 | 52 | 28 | 5.0 | 12.0 | 0.00 | 0.62 | 0.01 | 98 | 941.3 |
| 20260507132623 | 52 | 11 | 4.0 | 8.0 | 0.00 | 0.62 | 0.01 | 98 | 941.3 |
| 20260507131541 | 52 | 15 | 3.0 | 10.0 | 0.00 | 0.62 | 0.01 | 98 | 941.2 |
| 20260507130523 | 52 | 3 | 6.0 | 10.0 | 0.00 | 0.62 | 0.01 | 98 | 941.3 |
| 20260507125602 | 52 | 15 | 6.0 | 14.0 | 0.00 | 0.62 | 0.01 | 98 | 941.1 |
| 20260507124544 | 52 | 16 | 7.0 | 15.0 | 0.00 | 0.62 | 0.01 | 98 | 940.6 |
| 20260507123529 | 52 | 19 | 7.0 | 19.0 | 0.00 | 0.62 | 0.01 | 98 | 940.7 |
| 20260507122633 | 52 | 29 | 7.0 | 14.0 | 0.00 | 0.62 | 0.01 | 98 | 940.5 |
| 20260507121555 | 53 | 28 | 5.0 | 13.0 | 0.00 | 0.62 | 0.01 | 98 | 940.7 |
| 20260507120533 | 53 | 32 | 8.0 | 17.0 | 0.00 | 0.62 | 0.01 | 98 | 940.3 |
| 20260507115520 | 53 | 18 | 7.0 | 15.0 | 0.00 | 0.62 | 0.01 | 98 | 940.6 |
| 20260507114608 | 53 | 21 | 4.0 | 13.0 | 0.00 | 0.62 | 0.01 | 98 | 940.5 |
| 20260507113548 | 53 | 17 | 5.0 | 13.0 | 0.00 | 0.62 | 0.01 | 97 | 940.3 |
| 20260507112530 | 53 | 28 | 5.0 | 11.0 | 0.00 | 0.62 | 0.01 | 97 | 940.0 |
| 20260507111613 | 53 | 11 | 6.0 | 14.0 | 0.00 | 0.62 | 0.01 | 97 | 940.1 |
| 20260507110555 | 53 | 32 | 6.0 | 14.0 | 0.00 | 0.62 | 0.01 | 97 | 940.1 |
| 20260507105535 | 54 | 12 | 7.0 | 12.0 | 0.00 | 0.62 | 0.01 | 97 | 940.1 |
| 20260507104522 | 54 | 17 | 6.0 | 12.0 | 0.00 | 0.61 | 0.00 | 97 | 940.1 |
| 20260507103610 | 54 | 11 | 6.0 | 10.0 | 0.00 | 0.61 | 0.00 | 96 | 940.2 |
| 20260507102617 | 54 | 15 | 4.0 | 10.0 | 0.00 | 0.61 | 0.00 | 96 | 940.0 |
| 20260507101544 | 54 | 28 | 6.0 | 10.0 | 0.00 | 0.61 | 0.00 | 96 | 939.7 |
| 20260507100531 | 54 | 11 | 5.0 | 9.0 | 0.00 | 0.61 | 0.00 | 96 | 939.8 |
| 20260507095639 | 54 | 4 | 5.0 | 12.0 | 0.00 | 0.61 | 0.00 | 96 | 939.6 |
| 20260507094707 | 55 | 3 | 4.0 | 10.0 | 0.00 | 0.61 | 0.00 | 96 | 939.6 |
| 20260507093534 | 55 | 25 | 6.0 | 12.0 | 0.00 | 0.61 | 0.00 | 97 | 939.4 |
| 20260507092521 | 55 | 11 | 4.0 | 10.0 | 0.00 | 0.61 | 0.00 | 97 | 940.0 |
| 20260507091609 | 55 | 29 | 3.0 | 10.0 | 0.00 | 0.61 | 0.00 | 96 | 939.7 |
| 20260507090555 | 55 | 1 | 2.0 | 7.0 | 0.00 | 0.61 | 0.00 | 96 | 939.7 |
| 20260507085552 | 55 | 76 | 3.0 | 7.0 | 0.00 | 0.61 | 0.00 | 96 | 939.3 |
| 20260507084611 | 55 | 15 | 1.0 | 6.0 | 0.00 | 0.61 | 0.00 | 95 | 939.5 |
| 20260507083552 | 55 | 7 | 3.0 | 8.0 | 0.00 | 0.61 | 0.00 | 95 | 939.6 |
| 20260507082537 | 55 | 12 | 4.0 | 8.0 | 0.00 | 0.61 | 0.00 | 94 | 939.6 |
| 20260507081619 | 55 | 30 | 4.0 | 7.0 | 0.00 | 0.61 | 0.00 | 94 | 939.7 |
| 20260507080558 | 55 | 13 | 3.0 | 5.0 | 0.00 | 0.61 | 0.00 | 93 | 939.7 |
| 20260507075539 | 55 | 23 | 1.0 | 6.0 | 0.00 | 0.61 | 0.00 | 93 | 939.5 |
| 20260507074656 | 56 | 21 | 2.0 | 6.0 | 0.00 | 0.61 | 0.00 | 93 | 939.5 |
| 20260507073623 | 56 | 49 | 1.0 | 5.0 | 0.00 | 0.61 | 0.00 | 94 | 939.7 |
| 20260507072549 | 56 | 18 | 1.0 | 4.0 | 0.00 | 0.61 | 0.00 | 94 | 939.5 |
| 20260507071532 | 56 | 18 | 1.0 | 3.0 | 0.00 | 0.61 | 0.00 | 95 | 939.5 |
| 20260507070611 | 56 | 21 | 2.0 | 5.0 | 0.00 | 0.61 | 0.00 | 95 | 939.1 |
| 20260507065553 | 56 | 35 | 0.0 | 3.0 | 0.00 | 0.61 | 0.00 | 95 | 939.4 |
| 20260507064548 | 56 | 0.0 | 1.0 | 0.00 | 0.61 | 0.00 | 95 | 939.3 | |
| 20260507063517 | 56 | 111 | 0.0 | 2.0 | 0.00 | 0.61 | 0.00 | 95 | 939.4 |
| 20260507062554 | 56 | 122 | 1.0 | 2.0 | 0.00 | 0.61 | 0.00 | 95 | 939.1 |
| 20260507061621 | 56 | 78 | 1.0 | 6.0 | 0.00 | 0.61 | 0.00 | 95 | 938.5 |
| 20260507060526 | 56 | 59 | 1.0 | 3.0 | 0.00 | 0.61 | 0.00 | 94 | 938.7 |
| 20260507055614 | 56 | 302 | 3.0 | 8.0 | 0.00 | 0.61 | 0.00 | 95 | 938.7 |
| 20260507054556 | 57 | 29 | 4.0 | 8.0 | 0.00 | 0.61 | 0.00 | 94 | 938.5 |
| 20260507053534 | 57 | 13 | 4.0 | 8.0 | 0.00 | 0.61 | 0.00 | 94 | 938.5 |
| 20260507052515 | 57 | 12 | 4.0 | 10.0 | 0.00 | 0.61 | 0.00 | 94 | 938.9 |
| 20260507051604 | 57 | 14 | 3.0 | 9.0 | 0.00 | 0.61 | 0.00 | 94 | 939.0 |
| 20260507050609 | 57 | 10 | 3.0 | 6.0 | 0.00 | 0.61 | 0.00 | 94 | 939.2 |
| 20260507045636 | 57 | 13 | 4.0 | 8.0 | 0.00 | 0.61 | 0.61 | 94 | 939.2 |
| 20260507044523 | 57 | 7 | 2.0 | 6.0 | 0.00 | 0.61 | 0.61 | 94 | 939.4 |
| 20260507043603 | 57 | 17 | 5.0 | 8.0 | 0.00 | 0.61 | 0.61 | 94 | 939.3 |
| 20260507042629 | 57 | 21 | 5.0 | 11.0 | 0.00 | 0.61 | 0.61 | 94 | 939.6 |
| 20260507041617 | 57 | 14 | 5.0 | 10.0 | 0.00 | 0.61 | 0.61 | 95 | 939.6 |
| 20260507040523 | 57 | 18 | 5.0 | 12.0 | 0.00 | 0.61 | 0.61 | 95 | 939.4 |
| 20260507035611 | 57 | 18 | 3.0 | 8.0 | 0.00 | 0.61 | 0.61 | 95 | 939.4 |
| 20260507034556 | 57 | 17 | 3.0 | 9.0 | 0.00 | 0.61 | 0.61 | 95 | 938.9 |
| 20260507033544 | 57 | 21 | 3.0 | 7.0 | 0.00 | 0.61 | 0.61 | 95 | 939.0 |
| 20260507032530 | 57 | 12 | 3.0 | 9.0 | 0.00 | 0.61 | 0.61 | 95 | 938.9 |
| 20260507031517 | 57 | 24 | 4.0 | 7.0 | 0.00 | 0.61 | 0.61 | 95 | 938.9 |
| 20260507030603 | 57 | 15 | 3.0 | 9.0 | 0.00 | 0.61 | 0.61 | 95 | 938.7 |
| 20260507025540 | 57 | 18 | 5.0 | 13.0 | 0.00 | 0.61 | 0.61 | 95 | 938.7 |
| 20260507024527 | 57 | 21 | 4.0 | 14.0 | 0.00 | 0.61 | 0.61 | 96 | 938.5 |
| 20260507023636 | 57 | 14 | 7.0 | 15.0 | 0.00 | 0.61 | 0.61 | 96 | 938.4 |
| 20260507022602 | 57 | 14 | 7.0 | 15.0 | 0.00 | 0.61 | 0.61 | 96 | 938.3 |
| 20260507021549 | 57 | 30 | 4.0 | 13.0 | 0.00 | 0.61 | 0.61 | 96 | 939.0 |
| 20260507020536 | 57 | 11 | 4.0 | 9.0 | 0.00 | 0.61 | 0.61 | 96 | 939.1 |
| 20260507015524 | 57 | 8 | 4.0 | 7.0 | 0.00 | 0.61 | 0.61 | 96 | 939.0 |
| 20260507014601 | 57 | 2 | 6.0 | 12.0 | 0.00 | 0.61 | 0.61 | 95 | 938.8 |
| 20260507013629 | 57 | 12 | 6.0 | 11.0 | 0.00 | 0.61 | 0.61 | 95 | 938.6 |
| 20260507012536 | 57 | 5 | 5.0 | 10.0 | 0.00 | 0.61 | 0.61 | 95 | 938.3 |
| 20260507011522 | 57 | 4 | 5.0 | 11.0 | 0.00 | 0.61 | 0.61 | 95 | 938.3 |
| 20260507010609 | 57 | 354 | 6.0 | 10.0 | 0.00 | 0.61 | 0.61 | 94 | 938.3 |
| 20260507005547 | 57 | 5 | 6.0 | 11.0 | 0.00 | 0.61 | 0.61 | 94 | 938.2 |
| 20260507004529 | 58 | 357 | 4.0 | 9.0 | 0.00 | 0.61 | 0.61 | 94 | 938.2 |
| 20260507003516 | 58 | 4 | 6.0 | 10.0 | 0.00 | 0.61 | 0.61 | 93 | 938.0 |
| 20260507002555 | 58 | 15 | 4.0 | 9.0 | 0.00 | 0.61 | 0.61 | 93 | 938.0 |
| 20260507001602 | 58 | 5 | 5.0 | 9.0 | 0.00 | 0.61 | 0.61 | 93 | 938.0 |
| 20260507000548 | 58 | 352 | 6.0 | 11.0 | 0.00 | 0.61 | 0.61 | 93 | 937.6 |
| 20260506235611 | 58 | 357 | 5.0 | 10.0 | 0.00 | 0.61 | 0.61 | 93 | 937.7 |
| 20260506234559 | 58 | 6 | 7.0 | 13.0 | 0.00 | 0.61 | 0.61 | 93 | 937.5 |
| 20260506233545 | 58 | 0 | 6.0 | 10.0 | 0.00 | 0.61 | 0.61 | 93 | 937.5 |
| 20260506232526 | 58 | 355 | 6.0 | 10.0 | 0.00 | 0.61 | 0.61 | 93 | 937.6 |
| 20260506231609 | 58 | 6 | 4.0 | 10.0 | 0.00 | 0.61 | 0.61 | 93 | 937.6 |
| 20260506230550 | 58 | 357 | 5.0 | 12.0 | 0.00 | 0.61 | 0.61 | 94 | 937.4 |
| 20260506225554 | 58 | 356 | 6.0 | 15.0 | 0.00 | 0.61 | 0.61 | 94 | 937.5 |
| 20260506224609 | 58 | 350 | 6.0 | 14.0 | 0.00 | 0.61 | 0.61 | 95 | 937.4 |
| 20260506223550 | 58 | 352 | 8.0 | 13.0 | 0.00 | 0.61 | 0.61 | 95 | 937.7 |
| 20260506222532 | 58 | 350 | 6.0 | 11.0 | 0.00 | 0.61 | 0.61 | 95 | 937.6 |